Private Wetterstation Wechselburg
Wetterdaten: Samstag, 30.07.2011
Datum Zeit Temp. +2m Bodentemp. Temp.+5cm Temp. Wind Windchill X Diff Temp. Feuchte +2m Feuchte +5cm Sonnenschein Luftdruck Regen Wind Richtung Richtung Sonnenschein UV Taupunkt Windchill Windben
30.07.2011 00:00 16,1 C 20,8 C 15,4 C 15,6 C 14,6 C 0,0 C 72 % 75 % 0 % 1013,1 hPa 0,0 l/m 3,4 km/h (1 Bft) W-SW 247 0 min 0,0 UV-I 11,0 C 14,6 C 2,6 km/h (1 Bft)
30.07.2011 00:10 15,9 C 20,8 C 15,2 C 15,3 C 14,1 C 0,0 C 73 % 77 % 0 % 1012,8 hPa 0,0 l/m 2,1 km/h (1 Bft) N 0 0 min 0,0 UV-I 11,1 C 14,1 C 2,6 km/h (1 Bft)
30.07.2011 00:15 15,9 C 20,8 C 15,1 C 15,2 C 13,8 C 0,0 C 74 % 78 % 0 % 1012,8 hPa 0,0 l/m 2,1 km/h (1 Bft) W-SW 247 0 min 0,0 UV-I 11,3 C 13,8 C 3,4 km/h (1 Bft)
30.07.2011 00:20 15,7 C 20,8 C 15,0 C 15,1 C 13,8 C 0,0 C 74 % 78 % 0 % 1012,8 hPa 0,0 l/m 2,4 km/h (1 Bft) W-SW 247 0 min 0,0 UV-I 11,1 C 13,8 C 2,7 km/h (1 Bft)
30.07.2011 00:25 15,6 C 20,8 C 14,9 C 15,0 C 13,7 C 0,0 C 75 % 78 % 0 % 1012,8 hPa 0,0 l/m 2,7 km/h (1 Bft) W 270 0 min 0,0 UV-I 11,2 C 13,7 C 7,2 km/h (2 Bft)
30.07.2011 00:30 15,6 C 20,8 C 14,9 C 14,9 C 13,6 C 0,0 C 75 % 78 % 0 % 1012,9 hPa 0,0 l/m 2,9 km/h (1 Bft) W-SW 247 0 min 0,0 UV-I 11,2 C 13,6 C 1,9 km/h (1 Bft)
30.07.2011 00:35 15,5 C 20,8 C 14,8 C 14,8 C 13,5 C 0,0 C 76 % 80 % 0 % 1012,9 hPa 0,0 l/m 2,4 km/h (1 Bft) N 360 0 min 0,0 UV-I 11,3 C 13,5 C 1,9 km/h (1 Bft)
30.07.2011 00:40 15,4 C 20,8 C 14,8 C 14,7 C 13,4 C 0,0 C 76 % 79 % 0 % 1012,9 hPa 0,0 l/m 2,1 km/h (1 Bft) SW 225 0 min 0,0 UV-I 11,2 C 13,4 C 4,0 km/h (1 Bft)
30.07.2011 00:45 15,3 C 20,8 C 14,7 C 14,6 C 13,3 C 0,0 C 76 % 80 % 0 % 1012,9 hPa 0,0 l/m 2,3 km/h (1 Bft) W-SW 247 0 min 0,0 UV-I 11,1 C 13,3 C 3,5 km/h (1 Bft)
30.07.2011 00:50 15,3 C 20,8 C 14,7 C 14,6 C 13,3 C 0,0 C 76 % 80 % 0 % 1012,9 hPa 0,0 l/m 2,7 km/h (1 Bft) W-SW 247 0 min 0,0 UV-I 11,1 C 13,3 C 2,3 km/h (1 Bft)
30.07.2011 00:55 15,3 C 20,8 C 14,7 C 14,6 C 13,2 C 0,0 C 77 % 80 % 0 % 1012,9 hPa 0,0 l/m 2,4 km/h (1 Bft) W-SW 247 0 min 0,0 UV-I 11,3 C 13,2 C 3,4 km/h (1 Bft)
30.07.2011 01:00 15,2 C 20,8 C 14,5 C 14,5 C 13,2 C 0,0 C 77 % 80 % 0 % 1012,9 hPa 0,0 l/m 2,1 km/h (1 Bft) W-SW 247 0 min 0,0 UV-I 11,2 C 13,2 C 3,2 km/h (1 Bft)
30.07.2011 01:10 15,1 C 20,7 C 14,4 C 14,5 C 13,2 C 0,0 C 78 % 81 % 0 % 1012,8 hPa 0,0 l/m 1,9 km/h (1 Bft) N 0 0 min 0,0 UV-I 11,3 C 13,2 C 2,9 km/h (1 Bft)
30.07.2011 01:15 15,1 C 20,7 C 14,5 C 14,5 C 13,2 C 0,0 C 78 % 81 % 0 % 1012,8 hPa 0,0 l/m 2,4 km/h (1 Bft) SW 225 0 min 0,0 UV-I 11,3 C 13,2 C 2,1 km/h (1 Bft)
30.07.2011 01:20 15,0 C 20,7 C 14,4 C 14,4 C 13,3 C 0,0 C 78 % 80 % 0 % 1012,8 hPa 0,0 l/m 2,9 km/h (1 Bft) W 270 0 min 0,0 UV-I 11,2 C 13,3 C 3,7 km/h (1 Bft)
30.07.2011 01:25 15,0 C 20,7 C 14,4 C 14,5 C 13,5 C 0,0 C 78 % 80 % 0 % 1012,8 hPa 0,0 l/m 2,6 km/h (1 Bft) O-SO 112 0 min 0,0 UV-I 11,2 C 13,5 C 1,6 km/h (1 Bft)
30.07.2011 01:30 14,9 C 20,7 C 14,4 C 14,5 C 13,6 C 0,0 C 78 % 81 % 0 % 1012,5 hPa 0,0 l/m 2,6 km/h (1 Bft) S-SW 202 0 min 0,0 UV-I 11,1 C 13,6 C 3,4 km/h (1 Bft)
30.07.2011 01:35 14,9 C 20,7 C 14,4 C 14,5 C 13,7 C 0,0 C 78 % 81 % 0 % 1012,5 hPa 0,0 l/m 2,6 km/h (1 Bft) SW 225 0 min 0,0 UV-I 11,1 C 13,7 C 3,4 km/h (1 Bft)
30.07.2011 01:40 14,9 C 20,7 C 14,4 C 14,5 C 13,7 C 0,0 C 78 % 80 % 0 % 1012,5 hPa 0,0 l/m 2,4 km/h (1 Bft) W-SW 247 0 min 0,0 UV-I 11,1 C 13,7 C 1,9 km/h (1 Bft)
30.07.2011 01:45 14,9 C 20,6 C 14,4 C 14,5 C 13,6 C 0,0 C 78 % 81 % 0 % 1012,5 hPa 0,0 l/m 1,6 km/h (1 Bft) W-SW 247 0 min 0,0 UV-I 11,1 C 13,6 C 7,4 km/h (2 Bft)
30.07.2011 01:50 14,9 C 20,6 C 14,4 C 14,5 C 13,6 C 0,0 C 78 % 81 % 0 % 1012,4 hPa 0,0 l/m 1,0 km/h (0 Bft) W 270 0 min 0,0 UV-I 11,1 C 13,6 C 0,0 km/h (0 Bft)
30.07.2011 01:55 14,9 C 20,6 C 14,4 C 14,5 C 13,6 C 0,0 C 78 % 81 % 0 % 1012,4 hPa 0,0 l/m 1,4 km/h (1 Bft) W-SW 247 0 min 0,0 UV-I 11,1 C 13,6 C 0,0 km/h (0 Bft)
30.07.2011 02:00 14,9 C 20,6 C 14,4 C 14,5 C 13,8 C 0,0 C 78 % 81 % 0 % 1012,4 hPa 0,0 l/m 1,9 km/h (1 Bft) W-SW 247 0 min 0,0 UV-I 11,1 C 13,8 C 1,9 km/h (1 Bft)
30.07.2011 02:10 14,9 C 20,6 C 14,3 C 14,5 C 13,8 C 0,0 C 78 % 82 % 0 % 1012,2 hPa 0,0 l/m 1,9 km/h (1 Bft) N 0 0 min 0,0 UV-I 11,1 C 13,8 C 5,3 km/h (1 Bft)
30.07.2011 02:15 14,8 C 20,6 C 14,3 C 14,4 C 13,6 C 0,0 C 78 % 81 % 0 % 1012,2 hPa 0,0 l/m 2,6 km/h (1 Bft) W-SW 247 0 min 0,0 UV-I 11,0 C 13,6 C 7,9 km/h (2 Bft)
30.07.2011 02:20 14,8 C 20,6 C 14,3 C 14,4 C 13,5 C 0,0 C 78 % 81 % 0 % 1012,2 hPa 0,0 l/m 2,7 km/h (1 Bft) W-SW 247 0 min 0,0 UV-I 11,0 C 13,5 C 4,2 km/h (1 Bft)
30.07.2011 02:25 14,8 C 20,6 C 14,4 C 14,4 C 13,6 C 0,0 C 78 % 81 % 0 % 1012,2 hPa 0,0 l/m 2,3 km/h (1 Bft) W 270 0 min 0,0 UV-I 11,0 C 13,6 C 3,2 km/h (1 Bft)
30.07.2011 02:30 14,8 C 20,6 C 14,4 C 14,4 C 13,7 C 0,0 C 78 % 81 % 0 % 1012,1 hPa 0,0 l/m 2,3 km/h (1 Bft) SW 225 0 min 0,0 UV-I 11,0 C 13,7 C 3,2 km/h (1 Bft)
30.07.2011 02:35 14,8 C 20,6 C 14,4 C 14,5 C 13,9 C 0,0 C 78 % 81 % 0 % 1012,1 hPa 0,0 l/m 3,1 km/h (1 Bft) W-SW 247 0 min 0,0 UV-I 11,0 C 13,9 C 4,8 km/h (1 Bft)
30.07.2011 02:40 14,8 C 20,6 C 14,4 C 14,5 C 14,0 C 0,0 C 78 % 81 % 0 % 1012,1 hPa 0,0 l/m 3,1 km/h (1 Bft) SW 225 0 min 0,0 UV-I 11,0 C 14,0 C 3,4 km/h (1 Bft)
30.07.2011 02:45 14,8 C 20,6 C 14,3 C 14,5 C 13,8 C 0,0 C 79 % 81 % 0 % 1012,1 hPa 0,0 l/m 2,6 km/h (1 Bft) W 270 0 min 0,0 UV-I 11,2 C 13,8 C 1,9 km/h (1 Bft)
30.07.2011 02:50 14,8 C 20,6 C 14,3 C 14,4 C 13,5 C 0,0 C 80 % 83 % 0 % 1012,1 hPa 0,0 l/m 1,8 km/h (1 Bft) SW 225 0 min 0,0 UV-I 11,4 C 13,5 C 2,1 km/h (1 Bft)
30.07.2011 02:55 14,7 C 20,6 C 14,2 C 14,2 C 13,2 C 0,0 C 80 % 83 % 0 % 1012,1 hPa 0,7 l/m 0,8 km/h (0 Bft) S-SW 202 0 min 0,0 UV-I 11,3 C 13,2 C 0,0 km/h (0 Bft)
30.07.2011 03:00 14,7 C 20,7 C 14,1 C 14,1 C 13,0 C 0,0 C 80 % 83 % 0 % 1012,1 hPa 0,0 l/m 0,6 km/h (0 Bft) W-SW 247 0 min 0,0 UV-I 11,3 C 13,0 C 2,4 km/h (1 Bft)
30.07.2011 03:10 14,7 C 20,7 C 14,1 C 14,1 C 12,9 C 0,0 C 82 % 85 % 0 % 1011,8 hPa 0,0 l/m 0,0 km/h (0 Bft) N 0 0 min 0,0 UV-I 11,7 C 12,9 C 0,0 km/h (0 Bft)
30.07.2011 03:15 14,6 C 20,7 C 14,1 C 14,1 C 13,0 C 0,0 C 83 % 85 % 0 % 1011,8 hPa 0,0 l/m 0,2 km/h (0 Bft) SW 225 0 min 0,0 UV-I 11,7 C 13,0 C 3,1 km/h (1 Bft)
30.07.2011 03:20 14,5 C 20,6 C 14,1 C 14,0 C 13,0 C 0,0 C 82 % 84 % 0 % 1011,8 hPa 0,0 l/m 1,0 km/h (0 Bft) W-SW 247 0 min 0,0 UV-I 11,5 C 13,0 C 2,3 km/h (1 Bft)
30.07.2011 03:25 14,5 C 20,5 C 14,0 C 14,1 C 13,2 C 0,0 C 81 % 84 % 0 % 1011,8 hPa 0,0 l/m 2,4 km/h (1 Bft) W-SW 247 0 min 0,0 UV-I 11,3 C 13,2 C 1,8 km/h (1 Bft)
30.07.2011 03:30 14,5 C 20,5 C 14,1 C 14,1 C 13,4 C 0,0 C 81 % 84 % 0 % 1011,5 hPa 0,0 l/m 2,6 km/h (1 Bft) W-SW 247 0 min 0,0 UV-I 11,3 C 13,4 C 3,5 km/h (1 Bft)
30.07.2011 03:35 14,5 C 20,5 C 14,0 C 14,2 C 13,5 C 0,0 C 81 % 83 % 0 % 1011,5 hPa 0,0 l/m 2,9 km/h (1 Bft) SW 225 0 min 0,0 UV-I 11,3 C 13,5 C 6,4 km/h (2 Bft)
30.07.2011 03:40 14,5 C 20,5 C 14,0 C 14,2 C 13,5 C 0,0 C 81 % 83 % 0 % 1011,5 hPa 0,0 l/m 3,5 km/h (1 Bft) S 180 0 min 0,0 UV-I 11,3 C 13,5 C 4,8 km/h (1 Bft)
30.07.2011 03:45 14,5 C 20,5 C 14,0 C 14,2 C 13,5 C 0,0 C 80 % 83 % 0 % 1011,5 hPa 0,0 l/m 4,0 km/h (1 Bft) W-SW 247 0 min 0,0 UV-I 11,1 C 13,5 C 8,4 km/h (2 Bft)
30.07.2011 03:50 14,5 C 20,5 C 14,0 C 14,2 C 13,5 C 0,0 C 80 % 83 % 0 % 1011,3 hPa 0,0 l/m 4,2 km/h (1 Bft) W-SW 247 0 min 0,0 UV-I 11,1 C 13,5 C 6,6 km/h (2 Bft)
30.07.2011 03:55 14,4 C 20,5 C 14,1 C 14,1 C 13,6 C 0,0 C 81 % 83 % 0 % 1011,3 hPa 0,0 l/m 3,5 km/h (1 Bft) SW 225 0 min 0,0 UV-I 11,2 C 13,6 C 8,5 km/h (2 Bft)
30.07.2011 04:00 14,5 C 20,5 C 14,1 C 14,2 C 13,6 C 0,0 C 81 % 83 % 0 % 1011,3 hPa 0,0 l/m 2,7 km/h (1 Bft) W 270 0 min 0,0 UV-I 11,3 C 13,6 C 4,8 km/h (1 Bft)
30.07.2011 04:10 14,5 C 20,5 C 14,1 C 14,2 C 13,5 C 0,0 C 81 % 84 % 0 % 1011,1 hPa 0,0 l/m 2,6 km/h (1 Bft) N 0 0 min 0,0 UV-I 11,3 C 13,5 C 8,7 km/h (2 Bft)
30.07.2011 04:15 14,5 C 20,5 C 14,0 C 14,1 C 13,4 C 0,0 C 81 % 84 % 0 % 1011,1 hPa 0,0 l/m 2,7 km/h (1 Bft) SW 225 0 min 0,0 UV-I 11,3 C 13,4 C 7,6 km/h (2 Bft)
30.07.2011 04:20 14,5 C 20,5 C 14,0 C 14,1 C 13,4 C 0,0 C 81 % 84 % 0 % 1011,1 hPa 0,0 l/m 3,4 km/h (1 Bft) SW 225 0 min 0,0 UV-I 11,3 C 13,4 C 5,5 km/h (1 Bft)
30.07.2011 04:25 14,5 C 20,6 C 14,0 C 14,1 C 13,3 C 0,0 C 82 % 84 % 0 % 1011,1 hPa 0,0 l/m 4,3 km/h (1 Bft) W-SW 247 0 min 0,0 UV-I 11,5 C 13,3 C 9,7 km/h (2 Bft)
30.07.2011 04:30 14,4 C 20,7 C 13,9 C 14,0 C 13,1 C 0,0 C 83 % 85 % 0 % 1010,9 hPa 0,0 l/m 4,2 km/h (1 Bft) S-SW 202 0 min 0,0 UV-I 11,5 C 13,1 C 3,9 km/h (1 Bft)
30.07.2011 04:35 14,4 C 20,7 C 13,7 C 13,9 C 12,8 C 0,0 C 83 % 86 % 0 % 1010,9 hPa 0,0 l/m 4,2 km/h (1 Bft) SW 225 0 min 0,0 UV-I 11,5 C 12,8 C 8,2 km/h (2 Bft)
30.07.2011 04:40 14,3 C 20,7 C 13,6 C 13,8 C 12,8 C 0,0 C 83 % 86 % 0 % 1010,9 hPa 0,0 l/m 4,3 km/h (1 Bft) SW 225 0 min 0,0 UV-I 11,5 C 12,8 C 8,0 km/h (2 Bft)
30.07.2011 04:45 14,3 C 20,6 C 13,7 C 13,8 C 12,7 C 0,0 C 83 % 86 % 0 % 1010,9 hPa 0,0 l/m 4,8 km/h (1 Bft) W-SW 247 0 min 0,0 UV-I 11,5 C 12,7 C 6,8 km/h (2 Bft)
30.07.2011 04:50 14,1 C 20,6 C 13,6 C 13,6 C 12,7 C 0,0 C 84 % 87 % 0 % 1010,7 hPa 0,0 l/m 4,8 km/h (1 Bft) SW 225 0 min 0,0 UV-I 11,4 C 12,7 C 10,5 km/h (2 Bft)
30.07.2011 04:55 14,1 C 20,5 C 13,5 C 13,6 C 12,7 C 0,0 C 84 % 87 % 0 % 1010,7 hPa 0,7 l/m 5,6 km/h (1 Bft) SW 225 0 min 0,0 UV-I 11,4 C 12,7 C 11,6 km/h (2 Bft)
30.07.2011 05:00 14,0 C 20,6 C 13,5 C 13,5 C 12,5 C 0,0 C 84 % 87 % 0 % 1010,7 hPa 0,0 l/m 5,8 km/h (2 Bft) S-SW 202 0 min 0,0 UV-I 11,3 C 12,5 C 4,2 km/h (1 Bft)
30.07.2011 05:10 14,0 C 20,5 C 13,5 C 13,6 C 12,7 C 0,0 C 84 % 87 % 0 % 1010,3 hPa 0,0 l/m 4,5 km/h (1 Bft) N 0 0 min 0,0 UV-I 11,3 C 12,7 C 10,0 km/h (2 Bft)
30.07.2011 05:15 13,9 C 20,5 C 13,4 C 13,5 C 12,6 C 0,0 C 85 % 88 % 0 % 1010,3 hPa 0,0 l/m 5,3 km/h (1 Bft) W 270 0 min 0,0 UV-I 11,4 C 12,6 C 7,7 km/h (2 Bft)
30.07.2011 05:20 13,9 C 20,5 C 13,3 C 13,4 C 12,5 C 0,0 C 85 % 88 % 0 % 1010,3 hPa 0,0 l/m 5,8 km/h (2 Bft) SW 225 0 min 0,0 UV-I 11,4 C 12,5 C 7,1 km/h (2 Bft)
30.07.2011 05:25 13,8 C 20,5 C 13,2 C 13,3 C 12,4 C 0,0 C 85 % 88 % 0 % 1010,3 hPa 0,0 l/m 6,0 km/h (2 Bft) S-SW 202 0 min 0,0 UV-I 11,3 C 12,4 C 6,9 km/h (2 Bft)
30.07.2011 05:30 13,9 C 20,5 C 13,3 C 13,4 C 12,4 C 0,0 C 86 % 89 % 0 % 1010,2 hPa 0,0 l/m 6,0 km/h (2 Bft) W-SW 247 0 min 0,0 UV-I 11,6 C 12,4 C 8,4 km/h (2 Bft)
30.07.2011 05:35 13,8 C 20,6 C 13,2 C 13,4 C 12,6 C 0,0 C 86 % 89 % 0 % 1010,2 hPa 0,0 l/m 5,3 km/h (1 Bft) W 270 0 min 0,0 UV-I 11,5 C 12,6 C 7,9 km/h (2 Bft)
30.07.2011 05:40 13,8 C 20,5 C 13,1 C 13,4 C 12,6 C 0,0 C 86 % 90 % 0 % 1010,2 hPa 0,0 l/m 5,1 km/h (1 Bft) W-SW 247 0 min 0,0 UV-I 11,5 C 12,6 C 8,4 km/h (2 Bft)
30.07.2011 05:45 13,7 C 20,5 C 13,1 C 13,3 C 12,6 C 0,0 C 86 % 90 % 0 % 1010,2 hPa 0,0 l/m 4,8 km/h (1 Bft) W 270 0 min 0,0 UV-I 11,4 C 12,6 C 3,1 km/h (1 Bft)
30.07.2011 05:50 13,7 C 20,6 C 13,1 C 13,3 C 12,6 C 0,0 C 86 % 90 % 0 % 1010,2 hPa 0,0 l/m 4,5 km/h (1 Bft) N-NW 337 0 min 0,0 UV-I 11,4 C 12,6 C 4,0 km/h (1 Bft)
30.07.2011 05:55 13,7 C 20,6 C 13,1 C 13,3 C 12,6 C 0,0 C 87 % 91 % 0 % 1010,2 hPa 0,0 l/m 4,2 km/h (1 Bft) SW 225 0 min 0,0 UV-I 11,6 C 12,6 C 7,1 km/h (2 Bft)
30.07.2011 06:00 13,7 C 20,7 C 13,1 C 13,3 C 12,6 C 0,0 C 87 % 91 % 0 % 1010,2 hPa 0,0 l/m 3,9 km/h (1 Bft) W 270 0 min 0,0 UV-I 11,6 C 12,6 C 1,8 km/h (1 Bft)
30.07.2011 06:10 13,7 C 20,7 C 13,0 C 13,3 C 12,6 C 0,0 C 87 % 91 % 0 % 1010,2 hPa 0,7 l/m 3,9 km/h (1 Bft) N 0 0 min 0,0 UV-I 11,6 C 12,6 C 5,8 km/h (2 Bft)
30.07.2011 06:15 13,6 C 20,7 C 12,8 C 13,3 C 12,6 C 0,0 C 87 % 91 % 0 % 1010,2 hPa 0,0 l/m 4,2 km/h (1 Bft) SW 225 0 min 0,0 UV-I 11,5 C 12,6 C 3,7 km/h (1 Bft)
30.07.2011 06:20 13,6 C 20,8 C 12,9 C 13,3 C 12,6 C 0,0 C 87 % 92 % 0 % 1010,2 hPa 1,4 l/m 4,2 km/h (1 Bft) W-SW 247 0 min 0,0 UV-I 11,5 C 12,6 C 7,2 km/h (2 Bft)
30.07.2011 06:25 13,7 C 20,7 C 12,8 C 13,3 C 12,6 C 0,0 C 88 % 92 % 0 % 1010,2 hPa 0,7 l/m 3,2 km/h (1 Bft) S 180 0 min 0,0 UV-I 11,7 C 12,6 C 3,1 km/h (1 Bft)
30.07.2011 06:30 13,6 C 20,7 C 12,8 C 13,3 C 12,6 C 0,0 C 88 % 93 % 0 % 1010,2 hPa 0,0 l/m 2,9 km/h (1 Bft) W 270 0 min 0,0 UV-I 11,6 C 12,6 C 4,7 km/h (1 Bft)
30.07.2011 06:35 13,6 C 20,7 C 12,9 C 13,3 C 12,6 C 0,0 C 89 % 93 % 0 % 1010,2 hPa 0,0 l/m 3,5 km/h (1 Bft) W-SW 247 0 min 0,0 UV-I 11,8 C 12,6 C 7,2 km/h (2 Bft)
30.07.2011 06:40 13,6 C 20,7 C 12,8 C 13,3 C 12,6 C 0,0 C 89 % 93 % 0 % 1010,2 hPa 0,0 l/m 4,7 km/h (1 Bft) S-SW 202 0 min 0,0 UV-I 11,8 C 12,6 C 6,4 km/h (2 Bft)
30.07.2011 06:45 13,5 C 20,7 C 12,7 C 13,2 C 12,6 C 0,0 C 89 % 93 % 0 % 1010,2 hPa 0,7 l/m 5,1 km/h (1 Bft) S 180 0 min 0,0 UV-I 11,7 C 12,6 C 6,9 km/h (2 Bft)
30.07.2011 06:50 13,5 C 20,7 C 12,7 C 13,2 C 12,6 C 0,0 C 89 % 93 % 0 % 1010,2 hPa 0,0 l/m 5,5 km/h (1 Bft) S-SW 202 0 min 0,0 UV-I 11,7 C 12,6 C 8,4 km/h (2 Bft)
30.07.2011 06:55 13,5 C 20,6 C 12,7 C 13,1 C 12,4 C 0,0 C 89 % 93 % 0 % 1010,2 hPa 0,0 l/m 5,6 km/h (1 Bft) W 270 0 min 0,0 UV-I 11,7 C 12,4 C 11,9 km/h (2 Bft)
30.07.2011 07:00 13,5 C 20,6 C 12,7 C 13,1 C 12,2 C 0,0 C 89 % 93 % 0 % 1010,2 hPa 0,0 l/m 6,8 km/h (2 Bft) SW 225 0 min 0,0 UV-I 11,7 C 12,2 C 9,7 km/h (2 Bft)
30.07.2011 07:10 13,3 C 20,6 C 12,5 C 12,9 C 12,2 C 0,0 C 89 % 93 % 0 % 1010,1 hPa 0,7 l/m 6,8 km/h (2 Bft) N 0 0 min 0,0 UV-I 11,5 C 12,2 C 15,6 km/h (3 Bft)
30.07.2011 07:15 13,2 C 20,6 C 12,4 C 12,8 C 11,9 C 0,0 C 89 % 93 % 0 % 1010,1 hPa 0,0 l/m 7,1 km/h (2 Bft) W-SW 247 0 min 0,0 UV-I 11,4 C 11,9 C 4,0 km/h (1 Bft)
30.07.2011 07:20 13,2 C 20,6 C 12,4 C 12,8 C 12,0 C 0,0 C 90 % 93 % 0 % 1010,1 hPa 0,0 l/m 6,9 km/h (2 Bft) SW 225 0 min 0,0 UV-I 11,6 C 12,0 C 9,2 km/h (2 Bft)
30.07.2011 07:25 13,3 C 20,6 C 12,4 C 12,9 C 12,2 C 0,0 C 90 % 93 % 0 % 1010,1 hPa 0,7 l/m 6,1 km/h (2 Bft) S 180 0 min 0,0 UV-I 11,7 C 12,2 C 9,3 km/h (2 Bft)
30.07.2011 07:30 13,2 C 20,5 C 12,4 C 12,9 C 12,2 C 0,0 C 90 % 94 % 0 % 1009,8 hPa 0,0 l/m 6,1 km/h (2 Bft) W-SW 247 0 min 0,0 UV-I 11,6 C 12,2 C 6,0 km/h (2 Bft)
30.07.2011 07:35 13,1 C 20,6 C 12,4 C 12,8 C 12,2 C 0,0 C 90 % 94 % 0 % 1009,8 hPa 0,0 l/m 5,8 km/h (2 Bft) SW 225 0 min 0,0 UV-I 11,5 C 12,2 C 9,0 km/h (2 Bft)
30.07.2011 07:40 13,0 C 20,6 C 12,3 C 12,6 C 11,9 C 0,0 C 90 % 94 % 0 % 1009,8 hPa 0,0 l/m 6,6 km/h (2 Bft) W-SW 247 0 min 0,0 UV-I 11,4 C 11,9 C 9,7 km/h (2 Bft)
30.07.2011 07:45 13,1 C 20,5 C 12,3 C 12,7 C 11,8 C 0,0 C 90 % 94 % 0 % 1009,8 hPa 0,7 l/m 7,2 km/h (2 Bft) SW 225 0 min 0,0 UV-I 11,5 C 11,8 C 17,7 km/h (3 Bft)
30.07.2011 07:50 13,1 C 20,5 C 12,3 C 12,7 C 11,9 C 0,0 C 90 % 94 % 0 % 1009,9 hPa 0,0 l/m 6,9 km/h (2 Bft) W-SW 247 0 min 0,0 UV-I 11,5 C 11,9 C 8,5 km/h (2 Bft)
30.07.2011 07:55 13,1 C 20,5 C 12,4 C 12,7 C 12,0 C 0,0 C 90 % 94 % 0 % 1009,9 hPa 0,0 l/m 6,9 km/h (2 Bft) W-SW 247 0 min 0,0 UV-I 11,5 C 12,0 C 8,4 km/h (2 Bft)
30.07.2011 08:00 13,1 C 20,5 C 12,4 C 12,8 C 12,1 C 0,0 C 90 % 94 % 0 % 1009,9 hPa 0,7 l/m 6,4 km/h (2 Bft) W-SW 247 0 min 0,0 UV-I 11,5 C 12,1 C 6,6 km/h (2 Bft)
30.07.2011 08:10 13,1 C 20,5 C 12,4 C 12,7 C 12,0 C 0,0 C 91 % 94 % 0 % 1009,9 hPa 0,0 l/m 6,9 km/h (2 Bft) N 0 0 min 0,0 UV-I 11,7 C 12,0 C 5,6 km/h (1 Bft)
30.07.2011 08:15 13,1 C 20,5 C 12,4 C 12,8 C 12,2 C 0,0 C 91 % 94 % 0 % 1009,9 hPa 0,0 l/m 6,0 km/h (2 Bft) SW 225 0 min 0,0 UV-I 11,7 C 12,2 C 6,4 km/h (2 Bft)
30.07.2011 08:20 13,1 C 20,5 C 12,4 C 12,8 C 12,2 C 0,0 C 91 % 94 % 0 % 1009,9 hPa 0,7 l/m 6,1 km/h (2 Bft) W-SW 247 0 min 0,0 UV-I 11,7 C 12,2 C 10,0 km/h (2 Bft)
30.07.2011 08:25 13,1 C 20,5 C 12,3 C 12,7 C 12,0 C 0,0 C 91 % 94 % 0 % 1009,9 hPa 0,0 l/m 6,9 km/h (2 Bft) SW 225 0 min 0,0 UV-I 11,7 C 12,0 C 7,2 km/h (2 Bft)
30.07.2011 08:30 13,0 C 20,4 C 12,4 C 12,6 C 11,9 C 0,0 C 91 % 94 % 0 % 1010,1 hPa 0,0 l/m 7,2 km/h (2 Bft) W 270 0 min 0,0 UV-I 11,6 C 11,9 C 9,5 km/h (2 Bft)
30.07.2011 08:35 13,0 C 20,4 C 12,4 C 12,7 C 12,1 C 0,0 C 91 % 94 % 0 % 1010,1 hPa 0,7 l/m 6,8 km/h (2 Bft) W-SW 247 0 min 0,0 UV-I 11,6 C 12,1 C 11,6 km/h (2 Bft)
30.07.2011 08:40 13,1 C 20,4 C 12,4 C 12,8 C 12,1 C 0,0 C 91 % 94 % 0 % 1010,1 hPa 0,0 l/m 6,8 km/h (2 Bft) SW 225 0 min 0,0 UV-I 11,7 C 12,1 C 8,4 km/h (2 Bft)
30.07.2011 08:45 13,1 C 20,4 C 12,5 C 12,7 C 12,0 C 0,0 C 91 % 94 % 0 % 1010,1 hPa 0,0 l/m 6,9 km/h (2 Bft) W-SW 247 0 min 0,0 UV-I 11,7 C 12,0 C 9,8 km/h (2 Bft)
30.07.2011 08:50 13,0 C 20,4 C 12,4 C 12,7 C 12,0 C 0,0 C 91 % 94 % 0 % 1009,7 hPa 0,7 l/m 6,9 km/h (2 Bft) W-SW 247 0 min 0,0 UV-I 11,6 C 12,0 C 8,2 km/h (2 Bft)
30.07.2011 08:55 13,0 C 20,4 C 12,5 C 12,7 C 12,1 C 0,0 C 91 % 94 % 0 % 1009,7 hPa 0,0 l/m 6,3 km/h (2 Bft) W-SW 247 0 min 0,0 UV-I 11,6 C 12,1 C 3,9 km/h (1 Bft)
30.07.2011 09:00 13,1 C 20,4 C 12,5 C 12,8 C 12,3 C 0,0 C 91 % 94 % 0 % 1009,7 hPa 0,0 l/m 6,0 km/h (2 Bft) S-SO 157 0 min 0,0 UV-I 11,7 C 12,3 C 12,1 km/h (2 Bft)
30.07.2011 09:10 13,1 C 20,4 C 12,5 C 12,7 C 11,9 C 0,0 C 91 % 94 % 0 % 1009,6 hPa 0,7 l/m 7,1 km/h (2 Bft) N 0 0 min 0,0 UV-I 11,7 C 11,9 C 7,2 km/h (2 Bft)
30.07.2011 09:15 13,0 C 20,4 C 12,4 C 12,7 C 12,1 C 0,0 C 91 % 94 % 0 % 1009,6 hPa 0,7 l/m 7,4 km/h (2 Bft) SW 225 0 min 0,0 UV-I 11,6 C 12,1 C 10,6 km/h (2 Bft)
30.07.2011 09:20 13,1 C 20,4 C 12,4 C 12,8 C 12,1 C 0,0 C 91 % 94 % 0 % 1009,6 hPa 0,0 l/m 7,4 km/h (2 Bft) W-NW 292 0 min 0,0 UV-I 11,7 C 12,1 C 7,1 km/h (2 Bft)
30.07.2011 09:25 13,0 C 20,4 C 12,5 C 12,7 C 12,1 C 0,0 C 91 % 94 % 0 % 1009,6 hPa 0,0 l/m 7,1 km/h (2 Bft) W-SW 247 0 min 0,0 UV-I 11,6 C 12,1 C 10,6 km/h (2 Bft)
30.07.2011 09:30 13,1 C 20,3 C 12,5 C 12,8 C 12,1 C 0,0 C 91 % 94 % 0 % 1009,8 hPa 0,7 l/m 7,2 km/h (2 Bft) W-SW 247 0 min 0,0 UV-I 11,7 C 12,1 C 10,5 km/h (2 Bft)
30.07.2011 09:35 13,0 C 20,3 C 12,5 C 12,7 C 12,1 C 0,0 C 91 % 94 % 0 % 1009,8 hPa 0,0 l/m 7,2 km/h (2 Bft) S-SW 202 0 min 0,0 UV-I 11,6 C 12,1 C 19,2 km/h (3 Bft)
30.07.2011 09:40 13,1 C 20,3 C 12,5 C 12,8 C 11,9 C 0,0 C 91 % 94 % 0 % 1009,8 hPa 0,7 l/m 7,7 km/h (2 Bft) SW 225 0 min 0,0 UV-I 11,7 C 11,9 C 7,1 km/h (2 Bft)
30.07.2011 09:45 13,0 C 20,3 C 12,5 C 12,6 C 11,9 C 0,0 C 91 % 95 % 0 % 1009,8 hPa 0,0 l/m 7,9 km/h (2 Bft) S-SW 202 0 min 0,0 UV-I 11,6 C 11,9 C 9,2 km/h (2 Bft)
30.07.2011 09:50 13,1 C 20,3 C 12,5 C 12,8 C 12,3 C 0,0 C 91 % 95 % 0 % 1009,2 hPa 0,0 l/m 6,9 km/h (2 Bft) W-SW 247 0 min 0,0 UV-I 11,7 C 12,3 C 9,8 km/h (2 Bft)
30.07.2011 09:55 13,1 C 20,3 C 12,5 C 12,8 C 12,3 C 0,0 C 91 % 95 % 0 % 1009,2 hPa 0,7 l/m 6,6 km/h (2 Bft) W-SW 247 0 min 0,0 UV-I 11,7 C 12,3 C 9,3 km/h (2 Bft)
30.07.2011 10:00 13,1 C 20,3 C 12,5 C 12,8 C 12,3 C 0,0 C 91 % 95 % 0 % 1009,2 hPa 0,7 l/m 6,9 km/h (2 Bft) W 270 0 min 0,0 UV-I 11,7 C 12,3 C 4,7 km/h (1 Bft)
30.07.2011 10:10 13,0 C 20,3 C 12,5 C 12,7 C 12,1 C 0,0 C 91 % 95 % 0 % 1009,4 hPa 1,4 l/m 7,6 km/h (2 Bft) N 0 0 min 0,0 UV-I 11,6 C 12,1 C 4,5 km/h (1 Bft)
30.07.2011 10:15 13,1 C 20,3 C 12,6 C 12,8 C 12,1 C 0,0 C 91 % 95 % 0 % 1009,4 hPa 0,0 l/m 7,6 km/h (2 Bft) W 270 0 min 0,0 UV-I 11,7 C 12,1 C 7,6 km/h (2 Bft)
30.07.2011 10:20 13,0 C 20,3 C 12,5 C 12,8 C 12,4 C 0,0 C 91 % 95 % 0 % 1009,4 hPa 0,7 l/m 6,1 km/h (2 Bft) SW 225 0 min 0,0 UV-I 11,6 C 12,4 C 6,4 km/h (2 Bft)
30.07.2011 10:25 13,0 C 20,2 C 12,5 C 12,9 C 12,6 C 0,0 C 92 % 95 % 0 % 1009,4 hPa 0,0 l/m 5,3 km/h (1 Bft) NW 315 0 min 0,0 UV-I 11,7 C 12,6 C 4,5 km/h (1 Bft)
30.07.2011 10:30 13,1 C 20,2 C 12,5 C 12,9 C 12,6 C 0,0 C 92 % 95 % 0 % 1009,4 hPa 0,7 l/m 5,5 km/h (1 Bft) W 270 0 min 0,0 UV-I 11,8 C 12,6 C 8,9 km/h (2 Bft)
30.07.2011 10:35 13,0 C 20,2 C 12,5 C 12,8 C 12,4 C 0,0 C 92 % 95 % 0 % 1009,4 hPa 0,0 l/m 6,9 km/h (2 Bft) SW 225 0 min 0,0 UV-I 11,7 C 12,4 C 9,8 km/h (2 Bft)
30.07.2011 10:40 13,1 C 20,2 C 12,7 C 12,8 C 12,3 C 0,0 C 92 % 95 % 0 % 1009,4 hPa 0,0 l/m 7,4 km/h (2 Bft) W-SW 247 0 min 0,0 UV-I 11,8 C 12,3 C 11,9 km/h (2 Bft)
30.07.2011 10:45 13,1 C 20,2 C 12,7 C 12,9 C 12,2 C 0,0 C 92 % 95 % 0 % 1009,4 hPa 0,7 l/m 7,9 km/h (2 Bft) W 270 0 min 0,0 UV-I 11,8 C 12,2 C 5,8 km/h (2 Bft)
30.07.2011 10:50 13,1 C 20,2 C 12,7 C 12,8 C 12,2 C 0,0 C 92 % 95 % 0 % 1009,6 hPa 0,0 l/m 8,2 km/h (2 Bft) SW 225 0 min 0,0 UV-I 11,8 C 12,2 C 6,3 km/h (2 Bft)
30.07.2011 10:55 13,1 C 20,2 C 12,7 C 12,9 C 12,5 C 0,0 C 92 % 95 % 0 % 1009,6 hPa 0,7 l/m 6,8 km/h (2 Bft) W 270 0 min 0,0 UV-I 11,8 C 12,5 C 8,4 km/h (2 Bft)
30.07.2011 11:00 13,1 C 20,2 C 12,7 C 12,9 C 12,4 C 0,0 C 92 % 95 % 0 % 1009,6 hPa 0,7 l/m 7,2 km/h (2 Bft) W 270 0 min 0,0 UV-I 11,8 C 12,4 C 10,9 km/h (2 Bft)
30.07.2011 11:10 13,1 C 20,2 C 12,7 C 12,9 C 12,3 C 0,0 C 92 % 95 % 0 % 1009,6 hPa 0,7 l/m 7,7 km/h (2 Bft) N 0 0 min 0,0 UV-I 11,8 C 12,3 C 7,1 km/h (2 Bft)
30.07.2011 11:15 13,1 C 20,1 C 12,7 C 12,8 C 12,3 C 0,0 C 92 % 95 % 0 % 1009,6 hPa 0,7 l/m 8,0 km/h (2 Bft) S 180 0 min 0,0 UV-I 11,8 C 12,3 C 11,1 km/h (2 Bft)
30.07.2011 11:20 13,1 C 20,1 C 12,7 C 12,8 C 12,3 C 0,0 C 92 % 95 % 0 % 1009,6 hPa 0,7 l/m 7,6 km/h (2 Bft) NO 45 0 min 0,0 UV-I 11,8 C 12,3 C 6,4 km/h (2 Bft)
30.07.2011 11:25 13,1 C 20,1 C 12,6 C 12,8 C 12,3 C 0,0 C 92 % 95 % 0 % 1009,6 hPa 0,0 l/m 8,0 km/h (2 Bft) W-SW 247 0 min 0,0 UV-I 11,8 C 12,3 C 14,0 km/h (3 Bft)
30.07.2011 11:26 13,1 C 20,1 C 12,6 C 12,8 C 12,3 C 0,0 C 92 % 95 % 0 % 1009,6 hPa 0,7 l/m 7,7 km/h (2 Bft) W 270 0 min 0,0 UV-I 11,8 C 12,3 C 10,1 km/h (2 Bft)
30.07.2011 11:29 13,1 C 20,1 C 12,6 C 12,8 C 12,3 C 0,0 C 92 % 95 % 0 % 1009,6 hPa 0,0 l/m 7,7 km/h (2 Bft) W 270 0 min 0,0 UV-I 11,8 C 12,3 C 10,1 km/h (2 Bft)
30.07.2011 11:35 13,1 C 20,1 C 12,6 C 12,9 C 12,6 C 0,0 C 92 % 95 % 0 % 1009,6 hPa 0,0 l/m 7,1 km/h (2 Bft) S-SW 202 0 min 0,0 UV-I 11,8 C 12,6 C 8,7 km/h (2 Bft)
30.07.2011 11:40 13,1 C 20,1 C 12,7 C 13,0 C 12,7 C 0,0 C 92 % 95 % 0 % 1009,6 hPa 0,0 l/m 6,6 km/h (2 Bft) W 270 0 min 0,0 UV-I 11,8 C 12,7 C 13,5 km/h (3 Bft)
30.07.2011 11:45 13,1 C 20,1 C 12,7 C 12,9 C 12,6 C 0,0 C 92 % 95 % 0 % 1009,6 hPa 0,0 l/m 6,9 km/h (2 Bft) W-SW 247 0 min 0,0 UV-I 11,8 C 12,6 C 9,2 km/h (2 Bft)
30.07.2011 11:50 13,2 C 20,1 C 12,7 C 13,0 C 12,7 C 0,0 C 92 % 95 % 0 % 1009,4 hPa 0,7 l/m 6,6 km/h (2 Bft) W-SW 247 0 min 0,0 UV-I 11,9 C 12,7 C 7,6 km/h (2 Bft)
30.07.2011 11:55 13,2 C 20,0 C 12,8 C 13,1 C 12,9 C 0,0 C 93 % 95 % 0 % 1009,4 hPa 0,0 l/m 6,0 km/h (2 Bft) W-SW 247 0 min 0,0 UV-I 12,1 C 12,9 C 9,3 km/h (2 Bft)
30.07.2011 12:00 13,2 C 20,0 C 12,8 C 13,0 C 12,7 C 0,0 C 93 % 95 % 0 % 1009,4 hPa 0,0 l/m 6,8 km/h (2 Bft) W-SW 247 0 min 0,0 UV-I 12,1 C 12,7 C 12,6 km/h (3 Bft)
30.07.2011 12:10 13,2 C 20,0 C 12,9 C 13,0 C 12,7 C 0,0 C 93 % 95 % 0 % 1009,8 hPa 0,0 l/m 7,6 km/h (2 Bft) N 0 0 min 0,0 UV-I 12,1 C 12,7 C 11,9 km/h (2 Bft)
30.07.2011 12:15 13,2 C 20,0 C 12,8 C 13,0 C 12,7 C 0,0 C 93 % 95 % 0 % 1009,8 hPa 0,0 l/m 8,0 km/h (2 Bft) W-SW 247 0 min 0,0 UV-I 12,1 C 12,7 C 9,0 km/h (2 Bft)
30.07.2011 12:20 13,3 C 19,9 C 12,8 C 13,1 C 12,5 C 0,0 C 93 % 95 % 0 % 1009,8 hPa 0,7 l/m 8,9 km/h (2 Bft) W 270 0 min 0,0 UV-I 12,2 C 12,5 C 10,1 km/h (2 Bft)
30.07.2011 12:25 13,2 C 19,9 C 12,8 C 13,0 C 12,4 C 0,0 C 93 % 95 % 0 % 1009,8 hPa 0,0 l/m 9,2 km/h (2 Bft) W 270 0 min 0,0 UV-I 12,1 C 12,4 C 22,7 km/h (4 Bft)
30.07.2011 12:30 13,3 C 19,9 C 12,8 C 13,0 C 12,4 C 0,0 C 93 % 95 % 0 % 1009,8 hPa 0,0 l/m 9,2 km/h (2 Bft) W-SW 247 0 min 0,0 UV-I 12,2 C 12,4 C 14,0 km/h (3 Bft)
30.07.2011 12:35 13,2 C 19,9 C 12,8 C 13,0 C 12,2 C 0,0 C 92 % 95 % 0 % 1009,8 hPa 0,0 l/m 10,8 km/h (2 Bft) S-SW 202 0 min 0,0 UV-I 11,9 C 12,2 C 24,6 km/h (4 Bft)
30.07.2011 12:40 13,3 C 19,9 C 12,8 C 13,0 C 12,1 C 0,0 C 92 % 95 % 0 % 1009,8 hPa 0,0 l/m 11,7 km/h (2 Bft) SW 225 0 min 0,0 UV-I 12,0 C 12,1 C 15,3 km/h (3 Bft)
30.07.2011 12:45 13,3 C 19,9 C 12,9 C 13,0 C 12,3 C 0,0 C 92 % 95 % 0 % 1009,8 hPa 0,0 l/m 10,9 km/h (2 Bft) W-SW 247 0 min 0,0 UV-I 12,0 C 12,3 C 15,1 km/h (3 Bft)
30.07.2011 12:50 13,3 C 19,9 C 12,9 C 13,1 C 12,5 C 0,0 C 92 % 95 % 0 % 1009,6 hPa 0,0 l/m 9,7 km/h (2 Bft) W-SW 247 0 min 0,0 UV-I 12,0 C 12,5 C 15,9 km/h (3 Bft)
30.07.2011 12:55 13,3 C 19,9 C 12,9 C 13,0 C 12,5 C 0,0 C 92 % 95 % 0 % 1009,6 hPa 0,0 l/m 9,7 km/h (2 Bft) SW 225 0 min 0,0 UV-I 12,0 C 12,5 C 20,0 km/h (4 Bft)
30.07.2011 13:00 13,5 C 19,9 C 12,9 C 13,2 C 12,5 C 0,0 C 92 % 95 % 0 % 1009,6 hPa 0,0 l/m 9,8 km/h (2 Bft) NW 315 0 min 0,0 UV-I 12,2 C 12,5 C 16,9 km/h (3 Bft)
30.07.2011 13:10 13,4 C 19,8 C 13,0 C 13,2 C 12,8 C 0,0 C 92 % 95 % 0 % 1009,9 hPa 0,0 l/m 9,2 km/h (2 Bft) N 0 0 min 0,0 UV-I 12,1 C 12,8 C 9,2 km/h (2 Bft)
30.07.2011 13:15 13,5 C 19,8 C 13,1 C 13,3 C 12,7 C 0,0 C 92 % 95 % 0 % 1009,9 hPa 0,0 l/m 9,8 km/h (2 Bft) W-SW 247 0 min 0,0 UV-I 12,2 C 12,7 C 8,5 km/h (2 Bft)
30.07.2011 13:20 13,5 C 19,8 C 13,1 C 13,3 C 12,6 C 0,0 C 92 % 95 % 0 % 1009,9 hPa 0,0 l/m 10,5 km/h (2 Bft) SW 225 0 min 0,0 UV-I 12,2 C 12,6 C 8,5 km/h (2 Bft)
30.07.2011 13:25 13,5 C 19,8 C 13,1 C 13,3 C 13,0 C 0,0 C 92 % 95 % 0 % 1009,9 hPa 0,0 l/m 8,5 km/h (2 Bft) SW 225 0 min 0,0 UV-I 12,2 C 13,0 C 7,9 km/h (2 Bft)
30.07.2011 13:30 13,5 C 19,8 C 13,1 C 13,4 C 13,3 C 0,0 C 92 % 95 % 0 % 1009,9 hPa 0,0 l/m 6,9 km/h (2 Bft) W-SW 247 0 min 0,0 UV-I 12,2 C 13,3 C 6,1 km/h (2 Bft)
30.07.2011 13:35 13,6 C 19,8 C 13,1 C 13,5 C 13,3 C 0,0 C 92 % 95 % 0 % 1009,9 hPa 0,0 l/m 6,8 km/h (2 Bft) W-SW 247 0 min 0,0 UV-I 12,3 C 13,3 C 6,3 km/h (2 Bft)
30.07.2011 13:40 13,6 C 19,7 C 13,0 C 13,5 C 13,1 C 0,0 C 92 % 95 % 0 % 1009,9 hPa 0,0 l/m 8,0 km/h (2 Bft) S 180 0 min 0,0 UV-I 12,3 C 13,1 C 15,8 km/h (3 Bft)
30.07.2011 13:45 13,6 C 19,7 C 13,1 C 13,5 C 13,0 C 0,0 C 92 % 95 % 0 % 1009,9 hPa 0,7 l/m 8,9 km/h (2 Bft) W 270 0 min 0,0 UV-I 12,3 C 13,0 C 12,9 km/h (3 Bft)
30.07.2011 13:50 13,6 C 19,7 C 13,1 C 13,4 C 12,9 C 0,0 C 92 % 95 % 0 % 1009,8 hPa 0,0 l/m 9,2 km/h (2 Bft) W-SW 247 0 min 0,0 UV-I 12,3 C 12,9 C 13,4 km/h (3 Bft)
30.07.2011 13:55 13,7 C 19,7 C 13,1 C 13,4 C 12,9 C 0,0 C 92 % 95 % 0 % 1009,8 hPa 0,0 l/m 9,0 km/h (2 Bft) SW 225 0 min 0,0 UV-I 12,4 C 12,9 C 16,6 km/h (3 Bft)
30.07.2011 14:00 13,7 C 19,7 C 13,2 C 13,5 C 13,0 C 0,0 C 92 % 95 % 0 % 1009,8 hPa 0,0 l/m 8,7 km/h (2 Bft) W-SW 247 0 min 0,0 UV-I 12,4 C 13,0 C 13,4 km/h (3 Bft)
30.07.2011 14:10 13,6 C 19,7 C 13,2 C 13,5 C 13,1 C 0,0 C 92 % 95 % 0 % 1009,6 hPa 0,0 l/m 9,0 km/h (2 Bft) N 0 0 min 0,0 UV-I 12,3 C 13,1 C 8,0 km/h (2 Bft)
30.07.2011 14:15 13,6 C 19,7 C 13,2 C 13,5 C 13,2 C 0,0 C 92 % 95 % 0 % 1009,6 hPa 0,0 l/m 8,2 km/h (2 Bft) W-SW 247 0 min 0,0 UV-I 12,3 C 13,2 C 9,3 km/h (2 Bft)
30.07.2011 14:20 13,7 C 19,6 C 13,2 C 13,6 C 13,4 C 0,0 C 92 % 95 % 0 % 1009,6 hPa 0,0 l/m 7,6 km/h (2 Bft) W-SW 247 0 min 0,0 UV-I 12,4 C 13,4 C 17,1 km/h (3 Bft)
30.07.2011 14:25 13,7 C 19,6 C 13,3 C 13,6 C 13,4 C 0,0 C 92 % 95 % 0 % 1009,6 hPa 0,0 l/m 8,0 km/h (2 Bft) S-SW 202 0 min 0,0 UV-I 12,4 C 13,4 C 12,1 km/h (2 Bft)
30.07.2011 14:30 13,9 C 19,7 C 13,3 C 13,7 C 13,4 C 0,0 C 92 % 95 % 0 % 1009,8 hPa 0,0 l/m 8,4 km/h (2 Bft) W 270 0 min 0,0 UV-I 12,6 C 13,4 C 7,4 km/h (2 Bft)
30.07.2011 14:35 13,9 C 19,6 C 13,3 C 13,8 C 13,7 C 0,0 C 92 % 95 % 0 % 1009,8 hPa 0,0 l/m 7,1 km/h (2 Bft) W-SW 247 0 min 0,0 UV-I 12,6 C 13,7 C 14,2 km/h (3 Bft)
30.07.2011 14:40 13,9 C 19,6 C 13,5 C 13,9 C 13,9 C 0,0 C 92 % 95 % 0 % 1009,8 hPa 0,0 l/m 6,8 km/h (2 Bft) S 180 0 min 0,0 UV-I 12,6 C 13,9 C 7,7 km/h (2 Bft)
30.07.2011 14:45 13,8 C 19,6 C 13,5 C 13,8 C 13,8 C 0,0 C 92 % 95 % 0 % 1009,8 hPa 0,0 l/m 7,4 km/h (2 Bft) W-SW 247 0 min 0,0 UV-I 12,5 C 13,8 C 7,9 km/h (2 Bft)
30.07.2011 14:50 13,9 C 19,6 C 13,5 C 13,9 C 13,8 C 0,0 C 92 % 95 % 0 % 1009,8 hPa 0,0 l/m 7,1 km/h (2 Bft) SW 225 0 min 0,0 UV-I 12,6 C 13,8 C 13,8 km/h (3 Bft)
30.07.2011 14:55 13,9 C 19,6 C 13,4 C 13,9 C 13,8 C 0,0 C 92 % 95 % 0 % 1009,8 hPa 0,0 l/m 6,8 km/h (2 Bft) W-SW 247 0 min 0,0 UV-I 12,6 C 13,8 C 6,4 km/h (2 Bft)
30.07.2011 15:00 13,9 C 19,6 C 13,4 C 13,9 C 13,8 C 0,0 C 92 % 95 % 0 % 1009,8 hPa 0,0 l/m 6,8 km/h (2 Bft) W 270 0 min 0,0 UV-I 12,6 C 13,8 C 14,5 km/h (3 Bft)
30.07.2011 15:10 14,0 C 19,6 C 13,5 C 14,0 C 14,0 C 0,0 C 92 % 95 % 0 % 1009,9 hPa 0,0 l/m 5,6 km/h (1 Bft) N 0 0 min 0,0 UV-I 12,7 C 14,0 C 7,2 km/h (2 Bft)
30.07.2011 15:15 14,0 C 19,6 C 13,5 C 14,0 C 13,9 C 0,0 C 92 % 95 % 0 % 1009,9 hPa 0,0 l/m 6,6 km/h (2 Bft) W-NW 292 0 min 0,0 UV-I 12,7 C 13,9 C 8,4 km/h (2 Bft)
30.07.2011 15:20 14,0 C 19,6 C 13,5 C 13,9 C 13,8 C 0,0 C 92 % 95 % 0 % 1009,9 hPa 0,0 l/m 7,6 km/h (2 Bft) SW 225 0 min 0,0 UV-I 12,7 C 13,8 C 6,6 km/h (2 Bft)
30.07.2011 15:25 14,1 C 19,6 C 13,5 C 14,0 C 13,7 C 0,0 C 92 % 95 % 0 % 1009,9 hPa 0,0 l/m 7,9 km/h (2 Bft) W-SW 247 0 min 0,0 UV-I 12,8 C 13,7 C 16,9 km/h (3 Bft)
30.07.2011 15:30 14,0 C 19,6 C 13,5 C 13,9 C 13,6 C 0,0 C 92 % 95 % 0 % 1009,9 hPa 0,0 l/m 8,2 km/h (2 Bft) SW 225 0 min 0,0 UV-I 12,7 C 13,6 C 12,7 km/h (3 Bft)
30.07.2011 15:35 14,1 C 19,6 C 13,5 C 13,9 C 13,4 C 0,0 C 92 % 95 % 0 % 1009,9 hPa 0,0 l/m 7,7 km/h (2 Bft) W 270 0 min 0,0 UV-I 12,8 C 13,4 C 13,0 km/h (3 Bft)
30.07.2011 15:40 14,1 C 19,6 C 13,5 C 13,9 C 13,5 C 0,0 C 92 % 95 % 0 % 1009,9 hPa 0,7 l/m 7,6 km/h (2 Bft) W-SW 247 0 min 0,0 UV-I 12,8 C 13,5 C 9,5 km/h (2 Bft)
30.07.2011 15:45 14,0 C 19,6 C 13,5 C 13,9 C 13,6 C 0,0 C 92 % 95 % 0 % 1009,9 hPa 0,0 l/m 7,1 km/h (2 Bft) W 270 0 min 0,0 UV-I 12,7 C 13,6 C 7,7 km/h (2 Bft)
30.07.2011 15:50 14,0 C 19,6 C 13,5 C 13,9 C 13,6 C 0,0 C 92 % 95 % 0 % 1010,1 hPa 0,0 l/m 6,9 km/h (2 Bft) W-SW 247 0 min 0,0 UV-I 12,7 C 13,6 C 7,4 km/h (2 Bft)
30.07.2011 15:55 14,0 C 19,6 C 13,6 C 13,9 C 13,4 C 0,0 C 92 % 95 % 0 % 1010,1 hPa 0,7 l/m 7,9 km/h (2 Bft) S 180 0 min 0,0 UV-I 12,7 C 13,4 C 8,9 km/h (2 Bft)
30.07.2011 16:00 13,9 C 19,6 C 13,5 C 13,8 C 13,6 C 0,0 C 92 % 95 % 0 % 1010,1 hPa 0,0 l/m 7,2 km/h (2 Bft) W-SW 247 0 min 0,0 UV-I 12,6 C 13,6 C 8,9 km/h (2 Bft)
30.07.2011 16:10 13,9 C 19,6 C 13,6 C 13,9 C 13,8 C 0,0 C 93 % 95 % 0 % 1010,2 hPa 0,7 l/m 5,5 km/h (1 Bft) N 0 0 min 0,0 UV-I 12,8 C 13,8 C 5,6 km/h (1 Bft)
30.07.2011 16:15 13,9 C 19,6 C 13,5 C 13,9 C 13,8 C 0,0 C 92 % 95 % 0 % 1010,2 hPa 0,0 l/m 5,8 km/h (2 Bft) W-SW 247 0 min 0,0 UV-I 12,6 C 13,8 C 6,8 km/h (2 Bft)
30.07.2011 16:20 13,9 C 19,7 C 13,6 C 13,8 C 13,7 C 0,0 C 93 % 95 % 0 % 1010,2 hPa 0,7 l/m 6,6 km/h (2 Bft) W-SW 247 0 min 0,0 UV-I 12,8 C 13,7 C 12,2 km/h (2 Bft)
30.07.2011 16:25 13,9 C 19,7 C 13,5 C 13,8 C 13,3 C 0,0 C 93 % 95 % 0 % 1010,2 hPa 0,0 l/m 8,2 km/h (2 Bft) SW 225 0 min 0,0 UV-I 12,8 C 13,3 C 10,1 km/h (2 Bft)
30.07.2011 16:30 13,9 C 19,7 C 13,5 C 13,7 C 13,3 C 0,0 C 93 % 95 % 0 % 1010,1 hPa 0,7 l/m 8,0 km/h (2 Bft) SW 225 0 min 0,0 UV-I 12,8 C 13,3 C 9,3 km/h (2 Bft)
30.07.2011 16:35 13,9 C 19,7 C 13,5 C 13,8 C 13,7 C 0,0 C 93 % 95 % 0 % 1010,1 hPa 0,7 l/m 6,3 km/h (2 Bft) SW 225 0 min 0,0 UV-I 12,8 C 13,7 C 7,9 km/h (2 Bft)
30.07.2011 16:40 13,9 C 19,7 C 13,5 C 13,8 C 13,6 C 0,0 C 93 % 95 % 0 % 1010,1 hPa 0,7 l/m 6,9 km/h (2 Bft) SW 225 0 min 0,0 UV-I 12,8 C 13,6 C 13,2 km/h (3 Bft)
30.07.2011 16:45 13,9 C 19,7 C 13,5 C 13,8 C 13,5 C 0,0 C 93 % 95 % 0 % 1010,1 hPa 1,4 l/m 7,6 km/h (2 Bft) W-SW 247 0 min 0,0 UV-I 12,8 C 13,5 C 9,0 km/h (2 Bft)
30.07.2011 16:50 13,9 C 19,8 C 13,5 C 13,8 C 13,6 C 0,0 C 93 % 95 % 0 % 1010,0 hPa 0,7 l/m 7,2 km/h (2 Bft) S 180 0 min 0,0 UV-I 12,8 C 13,6 C 13,7 km/h (3 Bft)
30.07.2011 16:55 13,9 C 19,8 C 13,5 C 13,8 C 13,5 C 0,0 C 93 % 95 % 0 % 1010,0 hPa 0,7 l/m 7,4 km/h (2 Bft) W-SW 247 0 min 0,0 UV-I 12,8 C 13,5 C 9,8 km/h (2 Bft)
30.07.2011 17:00 13,9 C 19,8 C 13,5 C 13,8 C 13,6 C 0,0 C 93 % 95 % 0 % 1010,0 hPa 0,0 l/m 7,1 km/h (2 Bft) SW 225 0 min 0,0 UV-I 12,8 C 13,6 C 9,2 km/h (2 Bft)
30.07.2011 17:10 13,9 C 19,8 C 13,5 C 13,8 C 13,7 C 0,0 C 93 % 95 % 0 % 1009,8 hPa 1,4 l/m 6,4 km/h (2 Bft) N 0 0 min 0,0 UV-I 12,8 C 13,7 C 3,2 km/h (1 Bft)
30.07.2011 17:15 13,9 C 19,8 C 13,5 C 13,8 C 13,7 C 0,0 C 93 % 95 % 0 % 1009,8 hPa 0,7 l/m 6,6 km/h (2 Bft) W-SW 247 0 min 0,0 UV-I 12,8 C 13,7 C 8,4 km/h (2 Bft)
30.07.2011 17:20 13,9 C 19,8 C 13,5 C 13,8 C 13,7 C 0,0 C 93 % 95 % 0 % 1009,8 hPa 1,4 l/m 5,8 km/h (2 Bft) W-SW 247 0 min 0,0 UV-I 12,8 C 13,7 C 4,7 km/h (1 Bft)
30.07.2011 17:25 13,9 C 19,8 C 13,5 C 13,8 C 13,7 C 0,0 C 93 % 95 % 0 % 1009,8 hPa 0,7 l/m 5,8 km/h (2 Bft) W-SW 247 0 min 0,0 UV-I 12,8 C 13,7 C 5,8 km/h (2 Bft)
30.07.2011 17:30 13,9 C 19,8 C 13,5 C 13,8 C 13,7 C 0,0 C 93 % 95 % 0 % 1010,3 hPa 2,1 l/m 6,0 km/h (2 Bft) W-SW 247 0 min 0,0 UV-I 12,8 C 13,7 C 4,8 km/h (1 Bft)
30.07.2011 17:35 13,8 C 19,8 C 13,5 C 13,8 C 13,7 C 0,0 C 93 % 95 % 0 % 1010,3 hPa 0,7 l/m 4,7 km/h (1 Bft) W-SW 247 0 min 0,0 UV-I 12,7 C 13,7 C 4,3 km/h (1 Bft)
30.07.2011 17:40 13,9 C 19,8 C 13,5 C 13,8 C 13,7 C 0,0 C 93 % 95 % 0 % 1010,3 hPa 0,0 l/m 3,9 km/h (1 Bft) W-SW 247 0 min 0,0 UV-I 12,8 C 13,7 C 7,2 km/h (2 Bft)
30.07.2011 17:45 13,8 C 19,8 C 13,4 C 13,8 C 13,7 C 0,0 C 93 % 95 % 0 % 1010,3 hPa 0,7 l/m 4,5 km/h (1 Bft) SW 225 0 min 0,0 UV-I 12,7 C 13,7 C 6,6 km/h (2 Bft)
30.07.2011 17:50 13,8 C 19,7 C 13,5 C 13,7 C 13,6 C 0,0 C 93 % 95 % 0 % 1010,1 hPa 0,0 l/m 6,0 km/h (2 Bft) W-SW 247 0 min 0,0 UV-I 12,7 C 13,6 C 6,4 km/h (2 Bft)
30.07.2011 17:55 13,9 C 19,7 C 13,5 C 13,8 C 13,3 C 0,0 C 93 % 95 % 0 % 1010,1 hPa 0,7 l/m 7,7 km/h (2 Bft) S 180 0 min 0,0 UV-I 12,8 C 13,3 C 11,3 km/h (2 Bft)
30.07.2011 18:00 13,9 C 19,7 C 13,5 C 13,7 C 13,2 C 0,0 C 93 % 95 % 0 % 1010,1 hPa 0,0 l/m 8,0 km/h (2 Bft) SW 225 0 min 0,0 UV-I 12,8 C 13,2 C 14,8 km/h (3 Bft)
30.07.2011 18:10 13,9 C 19,7 C 13,4 C 13,7 C 13,4 C 0,0 C 93 % 95 % 0 % 1010,1 hPa 1,4 l/m 6,8 km/h (2 Bft) N 0 0 min 0,0 UV-I 12,8 C 13,4 C 11,6 km/h (2 Bft)
30.07.2011 18:15 13,8 C 19,7 C 13,5 C 13,6 C 13,3 C 0,0 C 93 % 95 % 0 % 1010,1 hPa 0,0 l/m 7,2 km/h (2 Bft) W-SW 247 0 min 0,0 UV-I 12,7 C 13,3 C 11,6 km/h (2 Bft)
30.07.2011 18:20 13,9 C 19,7 C 13,5 C 13,7 C 13,3 C 0,0 C 93 % 95 % 0 % 1010,1 hPa 0,0 l/m 7,4 km/h (2 Bft) W 270 0 min 0,0 UV-I 12,8 C 13,3 C 6,4 km/h (2 Bft)
30.07.2011 18:25 13,8 C 19,7 C 13,5 C 13,7 C 13,4 C 0,0 C 93 % 96 % 0 % 1010,1 hPa 0,7 l/m 6,8 km/h (2 Bft) W-SW 247 0 min 0,0 UV-I 12,7 C 13,4 C 9,7 km/h (2 Bft)
30.07.2011 18:30 13,9 C 19,7 C 13,5 C 13,8 C 13,6 C 0,0 C 93 % 96 % 0 % 1010,1 hPa 0,7 l/m 6,1 km/h (2 Bft) W-SW 247 0 min 0,0 UV-I 12,8 C 13,6 C 7,6 km/h (2 Bft)
30.07.2011 18:35 13,8 C 19,7 C 13,5 C 13,7 C 13,6 C 0,0 C 93 % 96 % 0 % 1010,1 hPa 0,0 l/m 6,3 km/h (2 Bft) W 270 0 min 0,0 UV-I 12,7 C 13,6 C 5,8 km/h (2 Bft)
30.07.2011 18:40 13,9 C 19,7 C 13,5 C 13,8 C 13,5 C 0,0 C 93 % 96 % 0 % 1010,1 hPa 0,7 l/m 6,4 km/h (2 Bft) W-SW 247 0 min 0,0 UV-I 12,8 C 13,5 C 11,1 km/h (2 Bft)
30.07.2011 18:45 13,9 C 19,7 C 13,4 C 13,7 C 13,4 C 0,0 C 93 % 96 % 0 % 1010,1 hPa 0,7 l/m 6,8 km/h (2 Bft) SW 225 0 min 0,0 UV-I 12,8 C 13,4 C 10,0 km/h (2 Bft)
30.07.2011 18:50 13,9 C 19,7 C 13,4 C 13,8 C 13,5 C 0,0 C 93 % 96 % 0 % 1009,9 hPa 0,0 l/m 6,4 km/h (2 Bft) W 270 0 min 0,0 UV-I 12,8 C 13,5 C 5,5 km/h (1 Bft)
30.07.2011 18:55 13,9 C 19,7 C 13,5 C 13,8 C 13,6 C 0,0 C 93 % 96 % 0 % 1009,9 hPa 0,0 l/m 6,3 km/h (2 Bft) S-SO 157 0 min 0,0 UV-I 12,8 C 13,6 C 7,1 km/h (2 Bft)
30.07.2011 19:00 13,9 C 19,7 C 13,5 C 13,7 C 13,4 C 0,0 C 93 % 96 % 0 % 1009,9 hPa 0,0 l/m 6,9 km/h (2 Bft) SW 225 0 min 0,0 UV-I 12,8 C 13,4 C 10,9 km/h (2 Bft)
30.07.2011 19:09 13,8 C 19,7 C 13,5 C 13,7 C 13,2 C 0,0 C 94 % 96 % 0 % 1009,9 hPa 1,4 l/m 8,4 km/h (2 Bft) N 0 0 min 0,0 UV-I 12,9 C 13,2 C 8,0 km/h (2 Bft)
30.07.2011 19:15 13,8 C 19,6 C 13,5 C 13,6 C 13,3 C 0,0 C 93 % 96 % 0 % 1009,9 hPa 0,0 l/m 7,4 km/h (2 Bft) W-SW 247 0 min 0,0 UV-I 12,7 C 13,3 C 12,9 km/h (3 Bft)
30.07.2011 19:20 13,8 C 19,6 C 13,5 C 13,6 C 13,3 C 0,0 C 93 % 96 % 0 % 1009,9 hPa 0,0 l/m 7,2 km/h (2 Bft) S-SW 202 0 min 0,0 UV-I 12,7 C 13,3 C 8,5 km/h (2 Bft)
30.07.2011 19:25 13,9 C 19,6 C 13,5 C 13,7 C 13,4 C 0,0 C 93 % 96 % 0 % 1009,9 hPa 0,7 l/m 7,1 km/h (2 Bft) S-SW 202 0 min 0,0 UV-I 12,8 C 13,4 C 13,8 km/h (3 Bft)
30.07.2011 19:30 13,9 C 19,6 C 13,5 C 13,7 C 13,4 C 0,0 C 94 % 96 % 0 % 1009,6 hPa 0,0 l/m 7,1 km/h (2 Bft) S 180 0 min 0,0 UV-I 12,9 C 13,4 C 6,4 km/h (2 Bft)
30.07.2011 19:35 13,9 C 19,6 C 13,5 C 13,7 C 13,3 C 0,0 C 93 % 96 % 0 % 1009,6 hPa 0,7 l/m 7,6 km/h (2 Bft) W 270 0 min 0,0 UV-I 12,8 C 13,3 C 12,6 km/h (3 Bft)
30.07.2011 19:40 13,7 C 19,6 C 13,4 C 13,5 C 13,2 C 0,0 C 93 % 96 % 0 % 1009,6 hPa 1,4 l/m 7,2 km/h (2 Bft) W-SW 247 0 min 0,0 UV-I 12,6 C 13,2 C 11,3 km/h (2 Bft)
30.07.2011 19:45 13,7 C 19,6 C 13,5 C 13,5 C 13,2 C 0,0 C 93 % 96 % 0 % 1009,6 hPa 0,7 l/m 7,6 km/h (2 Bft) SW 225 0 min 0,0 UV-I 12,6 C 13,2 C 13,5 km/h (3 Bft)
30.07.2011 19:50 13,7 C 19,6 C 13,3 C 13,5 C 13,2 C 0,0 C 94 % 96 % 0 % 1009,8 hPa 1,4 l/m 7,2 km/h (2 Bft) SW 225 0 min 0,0 UV-I 12,8 C 13,2 C 8,7 km/h (2 Bft)
30.07.2011 19:55 13,7 C 19,6 C 13,3 C 13,6 C 13,4 C 0,0 C 93 % 96 % 0 % 1009,8 hPa 0,0 l/m 6,4 km/h (2 Bft) W-SW 247 0 min 0,0 UV-I 12,6 C 13,4 C 15,3 km/h (3 Bft)
30.07.2011 20:00 13,8 C 19,6 C 13,3 C 13,6 C 13,3 C 0,0 C 94 % 96 % 0 % 1009,8 hPa 0,0 l/m 7,1 km/h (2 Bft) W 270 0 min 0,0 UV-I 12,9 C 13,3 C 18,2 km/h (3 Bft)
30.07.2011 20:10 13,7 C 19,6 C 13,4 C 13,5 C 13,2 C 0,0 C 94 % 96 % 0 % 1010,1 hPa 0,0 l/m 7,4 km/h (2 Bft) N 0 0 min 0,0 UV-I 12,8 C 13,2 C 9,7 km/h (2 Bft)
30.07.2011 20:15 13,7 C 19,6 C 13,3 C 13,6 C 13,1 C 0,0 C 94 % 96 % 0 % 1010,1 hPa 0,0 l/m 8,2 km/h (2 Bft) W-SW 247 0 min 0,0 UV-I 12,8 C 13,1 C 8,0 km/h (2 Bft)
30.07.2011 20:20 13,8 C 19,6 C 13,3 C 13,6 C 13,1 C 0,0 C 93 % 96 % 0 % 1010,1 hPa 0,0 l/m 8,2 km/h (2 Bft) W 270 0 min 0,0 UV-I 12,7 C 13,1 C 11,7 km/h (2 Bft)
30.07.2011 20:25 13,8 C 19,5 C 13,4 C 13,7 C 13,5 C 0,0 C 93 % 96 % 0 % 1010,1 hPa 0,0 l/m 6,4 km/h (2 Bft) W 270 0 min 0,0 UV-I 12,7 C 13,5 C 11,1 km/h (2 Bft)
30.07.2011 20:30 13,8 C 19,5 C 13,4 C 13,7 C 13,4 C 0,0 C 93 % 96 % 0 % 1010,2 hPa 0,0 l/m 6,9 km/h (2 Bft) W 270 0 min 0,0 UV-I 12,7 C 13,4 C 8,5 km/h (2 Bft)
30.07.2011 20:35 13,8 C 19,5 C 13,3 C 13,7 C 13,2 C 0,0 C 93 % 96 % 0 % 1010,2 hPa 0,0 l/m 8,0 km/h (2 Bft) S-SW 202 0 min 0,0 UV-I 12,7 C 13,2 C 10,5 km/h (2 Bft)
30.07.2011 20:40 13,8 C 19,5 C 13,4 C 13,6 C 13,2 C 0,0 C 93 % 96 % 0 % 1010,2 hPa 0,0 l/m 8,2 km/h (2 Bft) W 270 0 min 0,0 UV-I 12,7 C 13,2 C 9,0 km/h (2 Bft)
30.07.2011 20:45 13,8 C 19,5 C 13,3 C 13,6 C 13,2 C 0,0 C 93 % 96 % 0 % 1010,2 hPa 0,7 l/m 8,0 km/h (2 Bft) W 270 0 min 0,0 UV-I 12,7 C 13,2 C 8,7 km/h (2 Bft)
30.07.2011 20:50 13,9 C 19,5 C 13,3 C 13,7 C 13,2 C 0,0 C 93 % 96 % 0 % 1010,2 hPa 0,0 l/m 8,4 km/h (2 Bft) S 180 0 min 0,0 UV-I 12,8 C 13,2 C 11,9 km/h (2 Bft)
30.07.2011 20:55 13,8 C 19,5 C 13,3 C 13,6 C 13,3 C 0,0 C 93 % 96 % 0 % 1010,2 hPa 0,0 l/m 7,2 km/h (2 Bft) W-SW 247 0 min 0,0 UV-I 12,7 C 13,3 C 5,3 km/h (1 Bft)
30.07.2011 21:00 13,8 C 19,5 C 13,3 C 13,6 C 13,3 C 0,0 C 93 % 96 % 0 % 1010,2 hPa 0,0 l/m 6,6 km/h (2 Bft) W-SW 247 0 min 0,0 UV-I 12,7 C 13,3 C 4,5 km/h (1 Bft)
30.07.2011 21:10 13,8 C 19,5 C 13,3 C 13,6 C 13,3 C 0,0 C 93 % 96 % 0 % 1010,4 hPa 0,0 l/m 6,6 km/h (2 Bft) N 0 0 min 0,0 UV-I 12,7 C 13,3 C 9,7 km/h (2 Bft)
30.07.2011 21:15 13,7 C 19,5 C 13,3 C 13,5 C 13,2 C 0,0 C 93 % 96 % 0 % 1010,4 hPa 0,0 l/m 7,6 km/h (2 Bft) SW 225 0 min 0,0 UV-I 12,6 C 13,2 C 6,9 km/h (2 Bft)
30.07.2011 21:20 13,8 C 19,5 C 13,3 C 13,7 C 13,4 C 0,0 C 93 % 96 % 0 % 1010,4 hPa 0,0 l/m 7,1 km/h (2 Bft) W 270 0 min 0,0 UV-I 12,7 C 13,4 C 9,0 km/h (2 Bft)
30.07.2011 21:25 13,8 C 19,5 C 13,3 C 13,7 C 13,4 C 0,0 C 93 % 96 % 0 % 1010,4 hPa 0,0 l/m 7,1 km/h (2 Bft) S 180 0 min 0,0 UV-I 12,7 C 13,4 C 10,9 km/h (2 Bft)
30.07.2011 21:30 13,8 C 19,4 C 13,3 C 13,6 C 13,3 C 0,0 C 93 % 96 % 0 % 1010,3 hPa 0,0 l/m 7,2 km/h (2 Bft) W-SW 247 0 min 0,0 UV-I 12,7 C 13,3 C 13,2 km/h (3 Bft)
30.07.2011 21:35 13,8 C 19,4 C 13,3 C 13,6 C 13,3 C 0,0 C 93 % 96 % 0 % 1010,3 hPa 0,0 l/m 7,6 km/h (2 Bft) S 180 0 min 0,0 UV-I 12,7 C 13,3 C 12,7 km/h (3 Bft)
30.07.2011 21:40 13,8 C 19,4 C 13,3 C 13,6 C 13,3 C 0,0 C 93 % 96 % 0 % 1010,3 hPa 0,0 l/m 7,7 km/h (2 Bft) W-SW 247 0 min 0,0 UV-I 12,7 C 13,3 C 10,0 km/h (2 Bft)
30.07.2011 21:45 13,8 C 19,4 C 13,3 C 13,6 C 13,3 C 0,0 C 93 % 96 % 0 % 1010,3 hPa 0,0 l/m 7,6 km/h (2 Bft) W-SW 247 0 min 0,0 UV-I 12,7 C 13,3 C 10,8 km/h (2 Bft)
30.07.2011 21:50 13,9 C 19,4 C 13,3 C 13,7 C 13,4 C 0,0 C 93 % 96 % 0 % 1010,5 hPa 0,0 l/m 7,1 km/h (2 Bft) SW 225 0 min 0,0 UV-I 12,8 C 13,4 C 5,8 km/h (2 Bft)
30.07.2011 21:55 13,8 C 19,4 C 13,3 C 13,7 C 13,6 C 0,0 C 93 % 96 % 0 % 1010,5 hPa 0,0 l/m 6,4 km/h (2 Bft) SW 225 0 min 0,0 UV-I 12,7 C 13,6 C 11,9 km/h (2 Bft)
30.07.2011 22:00 13,8 C 19,4 C 13,3 C 13,8 C 13,7 C 0,0 C 93 % 96 % 0 % 1010,5 hPa 0,0 l/m 6,3 km/h (2 Bft) W-SW 247 0 min 0,0 UV-I 12,7 C 13,7 C 13,4 km/h (3 Bft)
30.07.2011 22:10 13,9 C 19,4 C 13,3 C 13,8 C 13,6 C 0,0 C 93 % 96 % 0 % 1010,6 hPa 0,0 l/m 7,2 km/h (2 Bft) N 0 0 min 0,0 UV-I 12,8 C 13,6 C 8,7 km/h (2 Bft)
30.07.2011 22:15 13,9 C 19,4 C 13,3 C 13,8 C 13,7 C 0,0 C 93 % 96 % 0 % 1010,6 hPa 0,0 l/m 6,6 km/h (2 Bft) W-SW 247 0 min 0,0 UV-I 12,8 C 13,7 C 10,5 km/h (2 Bft)
30.07.2011 22:20 13,9 C 19,4 C 13,3 C 13,8 C 13,7 C 0,0 C 93 % 96 % 0 % 1010,6 hPa 0,0 l/m 6,4 km/h (2 Bft) SW 225 0 min 0,0 UV-I 12,8 C 13,7 C 9,8 km/h (2 Bft)
30.07.2011 22:25 13,9 C 19,3 C 13,3 C 13,8 C 13,6 C 0,0 C 93 % 96 % 0 % 1010,6 hPa 0,0 l/m 6,9 km/h (2 Bft) SW 225 0 min 0,0 UV-I 12,8 C 13,6 C 12,2 km/h (2 Bft)
30.07.2011 22:30 13,9 C 19,3 C 13,3 C 13,8 C 13,6 C 0,0 C 93 % 96 % 0 % 1010,7 hPa 0,0 l/m 6,9 km/h (2 Bft) W-SW 247 0 min 0,0 UV-I 12,8 C 13,6 C 12,1 km/h (2 Bft)
30.07.2011 22:35 13,9 C 19,3 C 13,3 C 13,8 C 13,6 C 0,0 C 93 % 96 % 0 % 1010,7 hPa 0,0 l/m 7,7 km/h (2 Bft) S 180 0 min 0,0 UV-I 12,8 C 13,6 C 8,9 km/h (2 Bft)
30.07.2011 22:40 13,8 C 19,3 C 13,3 C 13,7 C 13,6 C 0,0 C 93 % 96 % 0 % 1010,7 hPa 0,0 l/m 8,0 km/h (2 Bft) W-SW 247 0 min 0,0 UV-I 12,7 C 13,6 C 6,9 km/h (2 Bft)
30.07.2011 22:45 13,8 C 19,3 C 13,4 C 13,8 C 13,5 C 0,0 C 92 % 96 % 0 % 1010,7 hPa 0,0 l/m 8,4 km/h (2 Bft) W 270 0 min 0,0 UV-I 12,5 C 13,5 C 5,0 km/h (1 Bft)
30.07.2011 22:50 13,8 C 19,3 C 13,4 C 13,7 C 13,4 C 0,0 C 92 % 96 % 0 % 1010,9 hPa 0,0 l/m 8,9 km/h (2 Bft) W 270 0 min 0,0 UV-I 12,5 C 13,4 C 10,6 km/h (2 Bft)
30.07.2011 22:55 13,9 C 19,3 C 13,3 C 13,8 C 13,7 C 0,0 C 92 % 96 % 0 % 1010,9 hPa 0,0 l/m 8,0 km/h (2 Bft) W-SW 247 0 min 0,0 UV-I 12,6 C 13,7 C 11,6 km/h (2 Bft)
30.07.2011 23:00 13,9 C 19,3 C 13,3 C 13,8 C 13,7 C 0,0 C 92 % 96 % 0 % 1010,9 hPa 0,0 l/m 7,2 km/h (2 Bft) W 270 0 min 0,0 UV-I 12,6 C 13,7 C 4,0 km/h (1 Bft)
30.07.2011 23:10 13,9 C 19,3 C 13,3 C 13,9 C 13,8 C 0,0 C 92 % 96 % 0 % 1010,6 hPa 0,0 l/m 6,8 km/h (2 Bft) N 0 0 min 0,0 UV-I 12,6 C 13,8 C 5,1 km/h (1 Bft)
30.07.2011 23:15 13,9 C 19,3 C 13,4 C 13,8 C 13,7 C 0,0 C 92 % 96 % 0 % 1010,6 hPa 0,0 l/m 7,1 km/h (2 Bft) W 270 0 min 0,0 UV-I 12,6 C 13,7 C 9,3 km/h (2 Bft)
30.07.2011 23:20 13,8 C 19,2 C 13,3 C 13,8 C 13,8 C 0,0 C 92 % 96 % 0 % 1010,6 hPa 0,0 l/m 6,6 km/h (2 Bft) W-SW 247 0 min 0,0 UV-I 12,5 C 13,8 C 5,8 km/h (2 Bft)
30.07.2011 23:25 13,9 C 19,2 C 13,4 C 13,9 C 13,9 C 0,0 C 92 % 96 % 0 % 1010,6 hPa 0,0 l/m 6,1 km/h (2 Bft) W-SW 247 0 min 0,0 UV-I 12,6 C 13,9 C 9,3 km/h (2 Bft)
30.07.2011 23:30 13,9 C 19,2 C 13,3 C 13,9 C 13,9 C 0,0 C 92 % 96 % 0 % 1010,7 hPa 0,0 l/m 6,0 km/h (2 Bft) SW 225 0 min 0,0 UV-I 12,6 C 13,9 C 13,5 km/h (3 Bft)
30.07.2011 23:35 13,9 C 19,2 C 13,4 C 13,9 C 13,9 C 0,0 C 92 % 96 % 0 % 1010,7 hPa 0,0 l/m 5,6 km/h (1 Bft) S-SW 202 0 min 0,0 UV-I 12,6 C 13,9 C 5,1 km/h (1 Bft)
30.07.2011 23:40 13,9 C 19,2 C 13,5 C 13,9 C 13,9 C 0,0 C 92 % 96 % 0 % 1010,7 hPa 0,0 l/m 5,5 km/h (1 Bft) SW 225 0 min 0,0 UV-I 12,6 C 13,9 C 6,9 km/h (2 Bft)
30.07.2011 23:45 13,9 C 19,2 C 13,3 C 13,9 C 13,9 C 0,0 C 92 % 96 % 0 % 1010,7 hPa 0,0 l/m 6,3 km/h (2 Bft) W-SW 247 0 min 0,0 UV-I 12,6 C 13,9 C 8,2 km/h (2 Bft)
30.07.2011 23:50 13,9 C 19,2 C 13,4 C 13,8 C 13,7 C 0,0 C 92 % 96 % 0 % 1010,8 hPa 0,0 l/m 6,9 km/h (2 Bft) S 180 0 min 0,0 UV-I 12,6 C 13,7 C 11,7 km/h (2 Bft)
30.07.2011 23:55 13,9 C 19,2 C 13,3 C 13,9 C 13,8 C 0,0 C 92 % 96 % 0 % 1010,8 hPa 0,0 l/m 6,4 km/h (2 Bft) W-SW 247 0 min 0,0 UV-I 12,6 C 13,8 C 7,9 km/h (2 Bft)
_ Min-Zeit 07:40 23:20 07:40 07:40 07:45 00:00 00:00 00:00 00:00 09:50 - 03:10 - - - 00:00 02:15 07:45 01:50
Minimum _ 13,0 C 19,2 C 12,3 C 12,6 C 11,8 C 0,0 C 72 % 75 % 0 % 1009,2 hPa - 0,0 km/h (0 Bft) - - - 0,0 UV-I 11,0 C 11,8 C 0,0 km/h (0 Bft)
_ Max-Zeit 00:00 00:00 00:00 00:00 00:00 00:00 19:09 18:25 00:00 00:00 17:30 12:40 - - 00:00 00:00 19:30 00:00 12:35
Maximum _ 16,1 C 20,8 C 15,4 C 15,6 C 14,6 C 0,0 C 94 % 96 % 0 % 1013,1 hPa 2,1 l/m 11,7 km/h
SW (2 Bft)
- - 0 min 0,0 UV-I 12,9 C 14,6 C 24,6 km/h
S-SW (4 Bft)
Durchschnitt _ 13,9 C 20,1 C 13,3 C 13,6 C 13,1 C 0,0 C 89 % 92 % 0 % 1010,4 hPa #50,1 l/m 6,1 km/h (2 Bft) W-SW - #0 min. 0,0 UV-I 12,0 C 13,1 C 8,3 km/h (2 Bft)
2013 www.wetterstation-wechselburg.de